ALK131 VCBI-VOTR

Flight info

Callsign ALK131
Flight time 0h 51m
Altitude 37000
Route ATETA1D ATETA DCT SAGOR/N0436F380 V7 TAPAS
Aircraft A20N/M-SDE2E3FGHIRWXY/LB1

Departure

Time 2026-04-27 10:32
Airport Bandaranaike International Colombo Airport (VCBI)

Arrival

Time 2026-04-27 11:24
Airport Tiruchirappalli International Airport (VOTR)
Time Latitude Longitude Altitude Speed Heading
2026-04-27 10:25 7.17477 79.88481 27 ft 2 kts
2026-04-27 10:25 7.17461 79.88483 27 ft 2 kts 336°
2026-04-27 10:25 7.17447 79.88491 27 ft 2 kts 311°
2026-04-27 10:25 7.17443 79.88496 27 ft 0 kts 308°
2026-04-27 10:28 7.17451 79.88487 27 ft 4 kts 308°
2026-04-27 10:28 7.17476 79.88454 39 ft 8 kts 308°
2026-04-27 10:28 7.17518 79.88398 27 ft 12 kts 307°
2026-04-27 10:28 7.17576 79.88322 27 ft 15 kts 307°
2026-04-27 10:29 7.17663 79.88259 27 ft 16 kts 12°
2026-04-27 10:29 7.17764 79.88333 27 ft 20 kts 37°
2026-04-27 10:29 7.17884 79.88425 27 ft 23 kts 38°
2026-04-27 10:29 7.18019 79.88528 27 ft 25 kts 37°
2026-04-27 10:30 7.18165 79.88639 27 ft 28 kts 37°
2026-04-27 10:30 7.18256 79.88707 27 ft 15 kts 36°
2026-04-27 10:30 7.18351 79.88778 27 ft 19 kts 36°
2026-04-27 10:30 7.18460 79.88865 27 ft 22 kts 37°
2026-04-27 10:31 7.18576 79.88950 27 ft 15 kts 24°
2026-04-27 10:31 7.18647 79.88906 28 ft 14 kts 306°
2026-04-27 10:31 7.18686 79.88813 29 ft 16 kts 254°
2026-04-27 10:31 7.18549 79.88709 28 ft 50 kts 218°
2026-04-27 10:32 7.18051 79.88331 29 ft 130 kts 217°
2026-04-27 10:32 7.17180 79.87671 426 ft 165 kts 217°
2026-04-27 10:32 7.16254 79.86941 1410 ft 173 kts 218°
2026-04-27 10:32 7.15328 79.86107 2332 ft 189 kts 233°
2026-04-27 10:33 7.14894 79.84790 3077 ft 213 kts 269°
2026-04-27 10:33 7.15226 79.83292 3798 ft 234 kts 293°
2026-04-27 10:33 7.16006 79.81769 4415 ft 256 kts 305°
2026-04-27 10:33 7.17330 79.80530 5223 ft 264 kts 331°
2026-04-27 10:34 7.19064 79.79932 6206 ft 265 kts 355°
2026-04-27 10:34 7.20887 79.80131 7104 ft 267 kts 22°
2026-04-27 10:34 7.22473 79.81107 7963 ft 272 kts 38°
2026-04-27 10:34 7.24017 79.82307 8677 ft 284 kts 39°
2026-04-27 10:35 7.25562 79.83519 9568 ft 288 kts 39°
2026-04-27 10:35 7.27161 79.84765 10416 ft 294 kts 39°
2026-04-27 10:35 7.28845 79.86072 10776 ft 317 kts 39°
2026-04-27 10:35 7.30668 79.87479 11081 ft 339 kts 38°
2026-04-27 10:36 7.32562 79.88936 11790 ft 343 kts 38°
2026-04-27 10:36 7.34496 79.90272 13129 ft 329 kts 30°
2026-04-27 10:36 7.36625 79.91159 13895 ft 339 kts 17°
2026-04-27 10:36 7.38999 79.91510 14129 ft 360 kts
2026-04-27 10:37 7.41547 79.91544 14675 ft 367 kts
2026-04-27 10:37 7.44118 79.91585 15357 ft 371 kts
2026-04-27 10:37 7.46726 79.91640 16008 ft 375 kts
2026-04-27 10:37 7.49320 79.91703 16643 ft 379 kts
2026-04-27 10:38 7.51978 79.91771 17265 ft 383 kts
2026-04-27 10:38 7.54669 79.91842 17874 ft 388 kts
2026-04-27 10:38 7.57390 79.91914 18461 ft 391 kts
2026-04-27 10:38 7.60114 79.91987 19028 ft 393 kts
2026-04-27 10:39 7.62836 79.92059 19572 ft 396 kts
2026-04-27 10:39 7.65600 79.92133 20126 ft 399 kts
2026-04-27 10:39 7.68403 79.92209 20664 ft 402 kts
2026-04-27 10:39 7.71185 79.92285 21208 ft 405 kts
2026-04-27 10:40 7.74021 79.92362 21735 ft 408 kts
2026-04-27 10:40 7.76880 79.92439 22260 ft 412 kts
2026-04-27 10:40 7.79761 79.92518 22787 ft 415 kts
2026-04-27 10:40 7.82665 79.92596 23296 ft 418 kts
2026-04-27 10:41 7.85563 79.92608 23723 ft 422 kts 359°
2026-04-27 10:41 7.88502 79.92282 24167 ft 426 kts 352°
2026-04-27 10:41 7.91419 79.91711 24604 ft 428 kts 351°
2026-04-27 10:41 7.94356 79.91138 25018 ft 431 kts 351°
2026-04-27 10:42 7.97284 79.90573 25429 ft 433 kts 351°
2026-04-27 10:42 8.00255 79.90001 25833 ft 436 kts 351°
2026-04-27 10:42 8.03253 79.89424 26231 ft 439 kts 351°
2026-04-27 10:42 8.06269 79.88842 26622 ft 441 kts 351°
2026-04-27 10:43 8.09302 79.88257 27004 ft 443 kts 351°
2026-04-27 10:43 8.12303 79.87677 27368 ft 446 kts 351°
2026-04-27 10:43 8.15359 79.87087 27735 ft 448 kts 351°
2026-04-27 10:43 8.18442 79.86492 28097 ft 451 kts 351°
2026-04-27 10:44 8.21549 79.85897 28450 ft 453 kts 351°
2026-04-27 10:44 8.24619 79.85314 28790 ft 455 kts 351°
2026-04-27 10:44 8.27749 79.84720 29122 ft 457 kts 351°
2026-04-27 10:44 8.30882 79.84126 29454 ft 460 kts 351°
2026-04-27 10:45 8.34047 79.83524 29776 ft 462 kts 351°
2026-04-27 10:45 8.37230 79.82919 30059 ft 465 kts 351°
2026-04-27 10:45 8.40379 79.82319 30336 ft 467 kts 351°
2026-04-27 10:45 8.43585 79.81709 30604 ft 469 kts 351°
2026-04-27 10:46 8.46810 79.81095 30889 ft 471 kts 351°
2026-04-27 10:46 8.50047 79.80478 31229 ft 472 kts 351°
2026-04-27 10:46 8.53289 79.79860 31616 ft 472 kts 351°
2026-04-27 10:46 8.56469 79.79253 31977 ft 471 kts 351°
2026-04-27 10:47 8.59694 79.78639 32324 ft 471 kts 351°
2026-04-27 10:47 8.62923 79.78023 32688 ft 471 kts 351°
2026-04-27 10:47 8.66144 79.77409 33045 ft 471 kts 351°
2026-04-27 10:47 8.69369 79.76794 33369 ft 471 kts 351°
2026-04-27 10:48 8.72601 79.76178 33691 ft 471 kts 351°
2026-04-27 10:48 8.75822 79.75564 33985 ft 471 kts 351°
2026-04-27 10:48 8.79007 79.74956 34248 ft 471 kts 351°
2026-04-27 10:48 8.82234 79.74341 34506 ft 472 kts 350°
2026-04-27 10:49 8.85466 79.73724 34771 ft 472 kts 350°
2026-04-27 10:49 8.88712 79.73104 35039 ft 472 kts 350°
2026-04-27 10:49 8.91942 79.72488 35300 ft 472 kts 350°
2026-04-27 10:49 8.95132 79.71879 35565 ft 472 kts 350°
2026-04-27 10:50 8.98361 79.71262 35831 ft 472 kts 350°
2026-04-27 10:50 9.01593 79.70645 36100 ft 472 kts 350°
2026-04-27 10:50 9.04821 79.70029 36377 ft 472 kts 350°
2026-04-27 10:50 9.08058 79.69410 36639 ft 472 kts 350°
2026-04-27 10:51 9.14479 79.68183 36785 ft 471 kts 350°
2026-04-27 10:51 9.20927 79.66951 36778 ft 470 kts 350°
2026-04-27 10:52 9.27358 79.65920 36780 ft 469 kts 359°
2026-04-27 10:52 9.33806 79.66799 36776 ft 467 kts 20°
2026-04-27 10:53 9.42280 79.71488 36779 ft 465 kts 33°
2026-04-27 10:54 9.47738 79.74951 36785 ft 465 kts 33°
2026-04-27 10:54 9.53236 79.78437 36786 ft 466 kts 33°
2026-04-27 10:55 9.58740 79.81931 36783 ft 466 kts 33°
2026-04-27 10:55 9.64221 79.85412 36773 ft 464 kts 33°
2026-04-27 10:56 9.69675 79.88877 36776 ft 464 kts 33°
2026-04-27 10:56 9.75158 79.92362 36773 ft 464 kts 33°
2026-04-27 10:57 9.80603 79.95824 36777 ft 465 kts 33°
2026-04-27 10:57 9.86099 79.99320 36774 ft 465 kts 33°
2026-04-27 10:58 9.91598 80.02803 36772 ft 466 kts 30°
2026-04-27 10:58 9.97646 80.05041 36770 ft 467 kts 10°
2026-04-27 10:58 10.00885 80.05331 36766 ft 468 kts 359°
2026-04-27 10:59 10.04123 80.05049 36769 ft 468 kts 349°
2026-04-27 10:59 10.10228 80.02835 36768 ft 467 kts 332°
2026-04-27 11:00 10.18883 79.98289 36769 ft 468 kts 332°
2026-04-27 11:00 10.23718 79.95759 36771 ft 468 kts 332°
2026-04-27 11:01 10.29516 79.92723 36742 ft 467 kts 332°
2026-04-27 11:01 10.32363 79.91232 36438 ft 464 kts 332°
2026-04-27 11:01 10.35228 79.89730 35876 ft 463 kts 332°
2026-04-27 11:02 10.39043 79.87730 34951 ft 464 kts 332°
2026-04-27 11:02 10.40956 79.86727 34459 ft 465 kts 332°
2026-04-27 11:02 10.43842 79.85212 33730 ft 467 kts 332°
2026-04-27 11:02 10.46739 79.83692 32947 ft 468 kts 333°
2026-04-27 11:03 10.49622 79.82178 32177 ft 468 kts 333°
2026-04-27 11:03 10.52523 79.80655 31382 ft 469 kts 333°
2026-04-27 11:03 10.55426 79.79129 30564 ft 470 kts 333°
2026-04-27 11:03 10.58339 79.77599 29817 ft 470 kts 334°
2026-04-27 11:04 10.61196 79.76098 29133 ft 466 kts 334°
2026-04-27 11:04 10.64061 79.74594 28466 ft 461 kts 334°
2026-04-27 11:04 10.66905 79.73099 27807 ft 457 kts 334°
2026-04-27 11:04 10.69724 79.71619 27175 ft 453 kts 334°
2026-04-27 11:05 10.72518 79.70151 26543 ft 449 kts 334°
2026-04-27 11:05 10.75287 79.68696 25942 ft 445 kts 334°
2026-04-27 11:05 10.78002 79.67273 25359 ft 441 kts 334°
2026-04-27 11:05 10.80732 79.65843 24770 ft 437 kts 334°
2026-04-27 11:06 10.83432 79.64428 24194 ft 434 kts 334°
2026-04-27 11:06 10.86082 79.63039 23643 ft 431 kts 334°
2026-04-27 11:06 10.88750 79.61640 23047 ft 428 kts 334°
2026-04-27 11:06 10.91386 79.60258 22449 ft 423 kts 334°
2026-04-27 11:07 10.93988 79.58892 21853 ft 419 kts 334°
2026-04-27 11:07 10.96569 79.57538 21266 ft 414 kts 334°
2026-04-27 11:07 10.99088 79.56216 20703 ft 410 kts 334°
2026-04-27 11:07 11.01623 79.54886 20137 ft 407 kts 334°
2026-04-27 11:08 11.04134 79.53568 19592 ft 403 kts 334°
2026-04-27 11:08 11.06621 79.52263 19029 ft 400 kts 334°
2026-04-27 11:08 11.09110 79.50957 18144 ft 406 kts 334°
2026-04-27 11:08 11.11625 79.49638 17033 ft 414 kts 334°
2026-04-27 11:09 11.14226 79.48274 15850 ft 421 kts 334°
2026-04-27 11:09 11.16830 79.46906 14710 ft 428 kts 334°
2026-04-27 11:09 11.19474 79.45516 13893 ft 425 kts 334°
2026-04-27 11:09 11.21979 79.43951 13086 ft 421 kts 323°
2026-04-27 11:10 11.24024 79.41837 12268 ft 418 kts 308°
2026-04-27 11:10 11.25470 79.39277 11464 ft 416 kts 294°
2026-04-27 11:10 11.26214 79.36436 10668 ft 414 kts 278°
2026-04-27 11:10 11.26135 79.33598 10430 ft 398 kts 261°
2026-04-27 11:11 11.25273 79.30998 10309 ft 375 kts 242°
2026-04-27 11:11 11.23729 79.28980 10203 ft 355 kts 220°
2026-04-27 11:11 11.21603 79.27681 10112 ft 360 kts 199°
2026-04-27 11:11 11.19179 79.27052 10022 ft 358 kts 192°
2026-04-27 11:12 11.16804 79.26332 9879 ft 356 kts 201°
2026-04-27 11:12 11.14627 79.25231 9780 ft 341 kts 211°
2026-04-27 11:12 11.12762 79.23933 9737 ft 316 kts 217°
2026-04-27 11:12 11.11066 79.22536 9742 ft 311 kts 220°
2026-04-27 11:13 11.09446 79.21096 9720 ft 314 kts 221°
2026-04-27 11:13 11.07827 79.19616 9531 ft 313 kts 222°
2026-04-27 11:13 11.06216 79.18133 9190 ft 311 kts 222°
2026-04-27 11:13 11.04619 79.16666 8861 ft 305 kts 222°
2026-04-27 11:14 11.03052 79.15231 8331 ft 300 kts 222°
2026-04-27 11:14 11.01499 79.13813 7776 ft 297 kts 222°
2026-04-27 11:14 10.99982 79.12429 7266 ft 294 kts 222°
2026-04-27 11:14 10.98473 79.11055 6788 ft 289 kts 222°
2026-04-27 11:15 10.96983 79.09697 6306 ft 285 kts 222°
2026-04-27 11:15 10.95535 79.08378 5807 ft 281 kts 222°
2026-04-27 11:15 10.94061 79.07034 5252 ft 279 kts 222°
2026-04-27 11:15 10.92620 79.05721 4724 ft 277 kts 221°
2026-04-27 11:16 10.91190 79.04415 4201 ft 274 kts 221°
2026-04-27 11:16 10.89794 79.03140 3663 ft 272 kts 221°
2026-04-27 11:16 10.88387 79.01857 3169 ft 270 kts 220°
2026-04-27 11:16 10.86995 79.00589 2707 ft 267 kts 220°
2026-04-27 11:17 10.85627 78.99342 2422 ft 258 kts 220°
2026-04-27 11:17 10.84301 78.98130 2371 ft 250 kts 220°
2026-04-27 11:17 10.83049 78.96989 2261 ft 236 kts 220°
2026-04-27 11:17 10.81864 78.95911 2153 ft 221 kts 219°
2026-04-27 11:18 10.80752 78.94901 2029 ft 207 kts 219°
2026-04-27 11:18 10.79732 78.93975 2034 ft 183 kts 219°
2026-04-27 11:18 10.78925 78.93053 2023 ft 165 kts 235°
2026-04-27 11:18 10.78507 78.92042 2007 ft 147 kts 250°
2026-04-27 11:19 10.78317 78.91048 1907 ft 141 kts 258°
2026-04-27 11:19 10.78209 78.90059 1687 ft 139 kts 260°
2026-04-27 11:19 10.78127 78.89097 1457 ft 135 kts 260°
2026-04-27 11:19 10.78042 78.88133 1559 ft 144 kts 261°
2026-04-27 11:20 10.77954 78.87121 1496 ft 143 kts 261°
2026-04-27 11:20 10.77867 78.86110 1504 ft 143 kts 262°
2026-04-27 11:20 10.77781 78.85107 1511 ft 142 kts 261°
2026-04-27 11:20 10.77696 78.84133 1510 ft 138 kts 263°
2026-04-27 11:21 10.77610 78.83136 1503 ft 142 kts 262°
2026-04-27 11:21 10.77525 78.82157 1506 ft 141 kts 262°
2026-04-27 11:21 10.77440 78.81161 1498 ft 142 kts 261°
2026-04-27 11:21 10.77353 78.80155 1492 ft 140 kts 263°
2026-04-27 11:22 10.77269 78.79174 1470 ft 143 kts 261°
2026-04-27 11:22 10.77180 78.78156 1281 ft 144 kts 263°
2026-04-27 11:22 10.77101 78.77148 996 ft 143 kts 262°
2026-04-27 11:22 10.77011 78.76184 877 ft 132 kts 263°
2026-04-27 11:23 10.76932 78.75223 725 ft 139 kts 263°
2026-04-27 11:23 10.76836 78.74239 511 ft 137 kts 261°
2026-04-27 11:23 10.76742 78.73299 385 ft 137 kts 262°
2026-04-27 11:23 10.76667 78.72318 315 ft 138 kts 264°
2026-04-27 11:24 10.76595 78.71532 308 ft 82 kts 265°
2026-04-27 11:24 10.76563 78.71092 309 ft 49 kts 264°
2026-04-27 11:24 10.76553 78.70943 312 ft 2 kts 263°
2026-04-27 11:24 10.76541 78.70924 311 ft 4 kts 217°
2026-04-27 11:25 10.76497 78.70931 311 ft 10 kts 153°
2026-04-27 11:25 10.76423 78.70978 310 ft 15 kts 149°
2026-04-27 11:25 10.76318 78.71041 310 ft 19 kts 153°
2026-04-27 11:25 10.76195 78.71116 309 ft 15 kts 149°
2026-04-27 11:26 10.76172 78.71130 310 ft 7 kts 149°
2026-04-27 11:26 10.76139 78.71185 308 ft 12 kts 97°
2026-04-27 11:26 10.76121 78.71226 308 ft 6 kts 163°
2026-04-27 11:26 10.76094 78.71222 307 ft 0 kts 166°
2026-04-27 11:27 10.76067 78.71224 305 ft 0 kts 175°